Temp
17 18 18 18 18 18 19 19 19 18 18 18 19 18 18 19 19 19 19 19 20 19 20 20 20 20 20 20 20 20 20 20 20 20 20 19 18 18 18 17 17 16 16 16 16 16 16 16 15 15 15 15 15 15 15 15 15 15 15 15 15 15 15 15 15 15 15 15 14 14 14 13 13 13 12 12 12 12 13 13 13 13 13 13 13
17 17 18 18 18 18 18 18 18 18 18 18 18 18 18 18 19 19 19 20 20 19 20 20 21 20 20 20 20 20 20 20 20 20 20 19 19 18 18 18 17 17 16 16 16 16 16 16 16 15 15 15 15 15 15 15 15 15 15 15 15 15 15 15 15 15 15 15 15 14 13 13 13 13 13 12 12 12 12 12 12 12 12 13 12
17 17 17 17 17 17 17 17 17 17 17 18 18 18 18 18 19 19 20 20 20 20 20 21 21 21 20 21 20 20 20 20 20 20 20 20 19 18 18 18 17 17 16 16 16 16 16 16 16 16 15 15 15 15 15 15 15 15 15 15 15 15 15 15 15 15 16 16 15 14 14 14 13 13 13 13 12 12 12 12 12 12 12 12 12
17 17 17 17 17 17 17 17 17 17 17 18 18 17 18 18 18 19 19 20 20 20 20 21 21 21 21 21 21 20 20 20 20 20 20 20 20 19 18 17 17 17 16 16 16 16 16 16 16 16 15 15 15 15 15 15 15 15 15 15 15 15 15 15 15 15 15 16 16 15 15 15 14 14 14 13 13 12 12 12 12 12 12 12 12
17 17 16 17 17 17 17 17 17 17 17 17 17 17 17 18 18 19 19 19 20 20 20 20 21 21 21 21 21 21 21 20 20 20 20 20 20 20 19 18 17 17 17 16 16 16 15 16 16 15 15 16 15 15 15 15 15 15 15 15 15 15 15 15 15 15 15 15 15 15 15 15 15 14 14 14 13 13 12 12 12 12 12 12 12
17 16 16 17 17 17 17 16 16 17 17 17 17 17 17 18 19 19 19 19 20 20 20 20 20 21 21 21 21 21 21 21 20 20 20 20 20 20 19 18 18 17 17 17 16 16 16 16 16 15 16 16 15 15 15 15 15 15 15 15 15 15 15 15 15 15 15 15 15 15 15 15 15 15 15 15 14 13 13 12 12 12 12 12 12
17 17 16 16 17 17 16 16 16 17 17 17 17 17 18 19 19 19 19 20 20 20 20 20 20 21 20 20 21 20 21 21 20 21 20 20 20 20 19 19 19 18 18 17 17 16 16 16 16 16 16 16 15 15 15 15 15 15 15 15 15 15 15 15 15 15 15 15 15 15 15 15 15 15 15 15 15 14 13 12 12 12 12 12 12
16 16 16 16 17 17 16 16 16 16 17 17 17 17 17 18 19 19 19 20 20 20 20 20 20 20 20 19 20 20 20 20 20 21 21 20 20 19 19 19 19 18 18 18 17 17 16 16 16 16 16 16 15 15 15 15 15 15 15 15 15 15 15 15 15 15 15 15 15 15 15 15 15 15 15 15 15 15 14 13 12 12 12 12 12
16 16 16 16 17 17 17 16 16 17 17 17 17 17 17 17 17 18 18 19 20 20 19 19 19 19 19 19 19 19 19 19 19 20 20 20 19 18 18 18 18 18 18 18 17 17 17 16 16 16 16 16 16 15 15 15 15 15 15 15 15 15 15 15 15 15 15 15 15 15 15 15 15 15 15 15 15 15 15 14 13 13 12 12 12
16 16 16 16 16 17 16 16 16 16 16 16 16 16 17 17 17 17 17 18 19 20 19 19 19 19 18 18 18 18 18 18 18 19 19 18 18 18 18 18 18 17 18 18 17 17 17 16 16 16 16 16 16 16 16 15 15 15 15 15 15 15 15 15 15 15 15 15 15 15 15 15 15 14 14 15 15 15 15 15 14 14 13 12 12
16 16 16 16 16 16 16 16 16 16 16 16 16 16 16 16 16 17 17 18 19 19 19 19 19 19 18 18 17 18 18 18 18 18 18 17 17 18 18 18 17 17 17 17 17 17 16 16 16 16 16 16 16 16 16 16 16 16 15 15 15 15 15 15 15 15 15 15 14 14 14 15 15 14 14 14 14 15 15 15 15 15 14 13 13
16 16 16 16 16 16 16 16 16 16 16 16 17 16 16 16 17 17 17 17 18 18 18 19 19 18 18 17 17 17 17 17 17 18 17 17 17 17 17 17 17 17 17 17 17 16 16 16 17 16 16 16 16 16 16 16 16 16 16 15 15 15 15 15 15 15 15 15 15 15 15 15 15 14 14 14 14 14 14 15 15 14 14 14 14
16 16 16 16 16 16 16 16 16 16 16 16 16 16 16 16 17 17 17 17 17 17 18 18 18 18 18 17 17 17 17 17 17 17 17 17 17 17 17 17 17 17 16 16 17 17 16 16 16 16 16 16 16 16 16 16 15 15 16 16 16 16 16 15 15 15 15 15 15 15 15 15 15 15 14 14 14 14 14 14 14 14 14 14 14
16 16 16 16 16 16 16 15 15 16 16 16 16 16 16 16 16 17 17 17 17 17 17 18 19 19 19 18 18 18 17 17 17 17 17 17 17 17 17 17 18 17 17 17 17 17 17 16 16 16 17 17 17 17 16 15 15 16 16 16 16 16 16 15 15 15 15 15 15 15 15 15 15 15 15 14 14 14 14 14 15 14 14 14 14
16 16 16 16 16 16 16 15 15 15 16 16 16 16 16 16 16 17 17 17 16 16 16 17 19 19 19 19 19 19 18 17 17 16 17 17 17 18 18 18 18 18 18 18 18 18 18 17 17 17 17 17 17 17 17 16 16 16 15 15 16 16 16 16 15 15 15 15 15 15 15 15 15 15 15 15 14 14 14 15 15 15 14 14 14
17 17 16 16 16 16 16 16 16 15 16 16 16 16 16 16 16 16 16 16 16 16 16 16 18 19 19 19 19 19 19 17 17 16 16 17 17 18 18 18 18 18 18 18 18 17 17 17 17 16 16 17 17 17 17 16 16 15 15 15 15 15 16 16 16 15 15 15 15 15 15 15 15 15 15 15 15 15 14 15 15 14 14 14 14
17 17 17 16 16 16 16 16 16 16 16 16 16 16 16 16 16 16 16 16 16 16 16 16 17 18 18 19 19 19 19 17 16 16 17 17 17 18 18 18 18 18 18 18 17 17 17 16 16 16 16 16 17 17 16 16 15 15 15 15 14 15 15 15 15 15 15 15 15 15 15 15 15 15 15 15 15 15 15 15 15 15 14 14 13
17 17 17 16 16 16 16 16 16 16 16 16 16 16 17 17 17 16 16 16 16 17 17 16 16 16 16 17 17 17 17 17 17 16 16 17 17 18 18 18 18 18 18 18 17 17 17 16 16 16 16 16 16 16 16 15 15 15 14 14 14 14 15 15 15 15 15 15 15 15 15 15 15 15 15 15 15 15 15 15 15 15 14 14 13
17 17 17 16 16 16 16 17 17 16 16 16 16 17 17 17 17 17 17 16 17 17 18 16 16 16 16 16 16 16 16 17 17 15 16 17 17 18 17 17 17 17 18 17 17 17 17 17 16 16 16 16 15 15 15 15 14 14 14 14 14 14 14 14 15 15 15 15 15 15 15 15 15 15 15 15 15 15 15 15 15 14 14 14 13
17 17 17 17 16 16 16 16 17 17 17 17 16 17 17 17 16 17 17 17 17 18 18 17 17 17 16 16 16 17 16 17 16 16 18 18 17 18 17 16 16 16 17 17 16 16 16 17 17 16 16 16 15 15 15 14 14 14 14 14 14 14 14 14 15 15 15 15 15 15 15 15 15 15 15 15 15 15 15 15 14 14 14 14 13
16 17 17 17 16 16 16 16 17 17 17 17 17 16 16 16 16 16 16 16 16 17 17 17 17 17 17 17 17 17 17 17 17 18 20 19 18 18 17 16 16 16 16 16 16 16 16 16 17 17 16 16 15 15 14 14 14 14 14 14 14 14 14 14 14 14 14 14 14 15 14 14 14 15 15 15 15 15 15 15 14 14 14 14 14
16 16 16 16 16 16 16 16 16 17 17 17 16 16 16 16 16 16 16 16 16 16 16 17 17 17 17 17 17 17 18 18 19 19 20 20 19 18 18 18 17 16 16 16 16 16 16 16 16 16 16 16 16 15 13 13 14 14 14 14 14 14 15 14 15 14 14 14 14 14 14 14 14 14 15 15 15 15 15 14 14 15 15 14 14
16 16 16 16 16 16 16 16 16 16 16 16 16 16 16 16 16 16 16 16 15 15 16 16 16 16 17 17 17 18 18 19 19 20 20 20 19 19 19 19 18 17 16 17 17 17 17 17 16 16 16 16 15 15 13 13 13 13 13 14 14 14 15 15 15 15 14 14 14 14 14 14 15 15 15 15 15 15 15 14 14 15 15 15 14
16 16 16 16 16 16 16 16 16 16 16 16 16 16 16 16 16 16 16 16 15 15 15 16 16 16 17 17 17 18 18 18 19 20 20 20 19 19 20 19 19 18 17 17 17 17 17 17 17 16 16 16 15 14 13 12 12 13 13 13 14 14 14 14 15 15 15 15 14 14 14 14 15 15 15 15 14 14 14 14 14 15 15 15 15
17 16 16 16 16 16 16 16 16 15 15 16 16 16 16 16 16 16 16 16 15 16 16 16 16 17 17 17 17 18 18 18 19 19 19 19 19 20 20 19 19 19 18 17 18 17 17 17 17 16 16 15 15 14 13 12 12 12 12 13 13 13 13 14 14 14 14 15 15 14 14 14 15 15 15 15 15 14 14 14 14 14 15 15 15
16 16 16 15 15 15 15 15 15 15 15 15 15 15 16 17 16 16 16 16 16 16 16 16 16 16 17 17 18 18 18 18 18 19 19 19 19 20 20 19 19 19 19 19 18 18 17 16 16 16 15 15 14 14 13 12 12 12 12 12 13 13 13 13 13 13 14 14 14 14 14 14 14 15 15 15 15 15 15 15 15 15 15 15 15
16 16 15 15 15 15 15 15 15 15 15 15 15 15 16 16 16 15 15 15 15 16 16 16 16 16 16 17 17 17 17 18 18 19 19 19 19 19 20 19 19 19 20 19 19 18 17 16 16 15 15 14 13 13 13 12 12 12 12 12 12 12 12 12 13 13 13 13 13 13 13 14 14 14 14 14 14 14 14 15 15 15 15 15 15
16 15 15 15 15 15 15 15 15 15 15 15 15 15 15 16 16 15 15 15 15 15 15 15 15 15 16 16 17 17 17 17 17 18 18 18 19 19 19 20 19 19 19 19 19 18 17 17 16 15 14 14 13 13 13 12 12 12 12 11 12 12 12 12 12 12 12 13 13 13 13 13 13 13 13 14 14 14 14 14 14 15 15 15 15
16 15 15 15 15 15 15 15 15 15 15 15 15 15 15 15 15 15 15 15 15 15 15 15 15 15 15 16 17 17 16 16 17 17 17 17 18 18 19 20 20 20 19 18 18 18 17 17 17 16 14 14 13 13 13 13 12 12 12 11 11 12 12 12 12 12 12 12 12 13 13 13 13 13 13 13 13 14 14 14 14 14 14 14 14
16 15 15 15 15 15 15 15 15 15 15 15 15 15 15 15 15 15 15 15 15 15 15 15 15 15 15 16 16 16 16 16 16 16 16 17 17 18 18 19 19 20 20 19 18 17 17 16 16 15 14 14 13 13 13 12 12 12 12 11 11 11 12 12 12 12 12 12 12 12 12 12 13 13 13 13 13 13 13 13 14 14 14 14 14
16 16 16 16 15 16 16 15 15 15 15 15 15 15 15 15 15 15 15 15 15 15 15 15 15 15 15 15 16 16 15 16 16 16 16 17 17 18 18 18 18 18 19 19 18 16 16 16 15 14 14 14 14 13 12 12 12 12 11 11 11 11 12 12 12 12 12 12 12 12 12 12 12 12 12 12 12 13 13 13 13 13 14 14 14
16 16 16 16 16 16 16 15 15 15 15 15 15 15 15 15 16 16 15 15 16 15 15 15 15 15 15 15 16 15 16 16 16 16 16 16 17 17 17 17 17 17 18 19 18 16 15 15 14 14 13 13 14 14 13 12 12 12 12 11 11 11 12 12 12 12 12 12 12 11 11 11 11 12 12 12 12 12 12 12 13 13 13 13 13
16 16 16 16 16 16 16 16 16 16 15 15 15 15 16 15 16 15 15 16 16 16 15 15 15 16 16 16 15 15 16 16 16 16 16 16 16 17 17 17 17 17 17 18 18 16 15 14 14 14 13 13 14 14 13 13 12 12 12 12 11 12 12 12 12 11 11 11 11 11 11 11 11 11 11 11 12 12 12 12 12 12 13 13 13
16 16 16 16 16 16 16 16 16 16 16 16 15 16 16 15 15 15 15 16 16 16 16 16 16 16 16 16 16 15 15 16 16 17 17 17 17 17 17 17 17 17 17 18 18 17 16 14 14 14 13 13 14 13 13 12 12 12 13 12 12 12 12 12 12 12 11 11 11 11 11 11 11 11 11 12 12 12 12 12 12 12 12 12 12
16 16 16 16 16 16 16 16 16 16 16 16 15 16 16 15 15 15 15 16 16 16 16 16 16 16 15 16 15 15 15 15 16 16 16 16 17 17 16 16 16 16 16 17 17 17 16 15 15 15 14 13 13 14 13 12 12 12 13 13 12 12 12 11 12 12 11 11 11 11 11 11 11 11 11 12 12 12 12 12 12 12 12 12 12
16 16 16 16 16 16 16 16 16 16 16 16 15 16 16 16 16 15 15 16 16 16 16 16 16 16 16 16 15 15 15 15 15 15 15 16 16 16 16 16 15 15 15 15 16 17 16 16 15 15 15 13 13 14 13 13 13 12 13 13 12 12 12 11 12 11 11 10 11 11 11 11 12 11 11 11 11 11 11 11 11 11 12 12 12
16 16 16 16 16 16 16 17 17 16 16 16 16 16 15 15 16 16 16 15 15 16 16 16 16 16 15 15 15 15 15 15 15 15 15 15 16 16 16 16 16 15 14 15 15 16 16 16 15 14 14 14 14 13 13 13 14 14 14 13 13 12 12 11 11 11 10 10 10 10 10 10 10 10 11 11 11 11 11 11 11 11 11 11 11
16 16 16 16 16 17 17 17 17 17 16 16 16 16 16 15 15 15 15 15 15 15 15 15 15 15 15 15 15 15 15 15 15 15 15 14 15 15 15 15 16 15 14 15 15 15 15 16 15 14 14 14 14 14 13 13 13 14 13 13 13 13 12 12 11 11 10 10 9 9 9 9 9 9 10 10 10 10 10 10 10 10 10 10 10
16 16 16 16 16 16 17 17 17 17 16 16 16 16 16 15 15 15 15 15 15 15 15 15 15 15 15 15 15 15 15 15 15 14 14 14 14 14 14 14 14 14 14 15 15 15 15 15 15 15 14 14 13 14 14 13 13 13 13 12 13 13 12 12 12 12 11 10 10 10 9 9 9 9 9 9 9 9 9 9 9 9 9 9 9
16 16 16 16 15 15 16 16 16 16 16 16 16 16 16 16 15 15 15 15 15 15 15 15 15 15 15 15 15 15 14 14 14 14 14 13 13 13 13 13 13 14 14 14 14 15 15 15 15 15 15 15 14 14 13 13 13 13 12 11 12 12 12 12 12 12 11 10 10 10 10 10 9 9 9 9 9 9 9 9 8 8 8 8 8
16 16 16 16 15 15 15 15 15 15 15 16 16 15 16 15 15 15 15 15 15 15 15 15 15 15 15 15 15 15 14 14 14 13 13 13 13 13 12 13 13 13 14 14 14 15 15 15 16 15 15 15 15 14 13 13 12 12 11 11 11 12 12 12 12 12 11 10 10 10 10 10 10 9 9 10 10 9 8 8 8 7 8 8 7
16 16 16 15 15 15 15 15 15 15 15 15 15 15 15 15 15 15 14 14 15 15 15 15 15 15 15 15 14 14 14 13 13 13 13 13 13 13 13 13 13 13 13 14 14 15 15 15 15 15 14 15 14 13 12 12 11 11 11 11 11 11 11 11 12 12 11 9 9 9 10 10 10 9 10 10 10 9 8 9 8 8 7 8 7
15 15 15 15 15 15 15 15 15 15 14 15 15 15 15 15 15 14 14 14 14 14 14 15 15 15 15 15 14 13 13 13 13 13 12 12 12 12 12 12 12 13 13 13 14 14 14 14 14 13 13 13 13 12 12 12 11 10 10 10 10 11 11 11 11 12 11 9 8 9 9 10 9 9 10 10 9 9 8 8 8 7 7 7 7
15 14 14 15 15 15 15 15 15 15 15 15 15 15 15 15 14 14 14 14 14 14 14 14 15 15 15 15 14 13 13 13 12 12 12 12 12 11 11 11 11 12 12 12 13 13 13 13 13 12 12 12 12 12 11 10 10 10 9 10 10 10 10 10 10 11 10 9 8 8 9 9 9 9 9 9 9 9 8 8 7 6 6 6 6
14 14 14 14 14 14 14 15 14 14 14 14 14 14 15 14 14 14 14 14 14 14 14 14 14 14 14 14 14 13 13 12 12 12 12 11 11 11 11 11 11 11 11 11 11 12 11 11 11 12 11 11 11 11 10 8 8 8 9 9 10 9 9 9 9 9 9 8 7 8 8 9 9 9 10 9 9 9 8 7 7 6 6 5 5
13 13 14 14 14 14 14 14 14 14 14 14 13 14 14 14 14 14 14 13 13 13 14 14 14 14 14 14 14 14 13 12 12 13 12 11 11 11 10 10 10 10 10 10 10 10 10 10 10 11 10 9 10 9 8 7 7 8 8 8 8 8 8 8 8 7 7 7 7 7 8 8 9 9 9 9 9 8 8 7 7 6 6 5 5
13 13 14 13 13 13 14 14 14 14 13 13 13 13 13 13 13 13 13 13 13 14 14 14 14 14 14 14 14 14 13 13 12 12 12 11 10 10 10 10 9 9 9 9 9 9 9 9 9 9 8 8 8 8 7 7 6 6 6 6 6 6 6 6 7 7 8 8 7 7 7 8 8 8 9 9 9 8 8 8 7 6 6 5 5
12 13 13 13 13 13 13 13 13 14 13 13 13 13 13 13 13 13 13 13 13 14 14 13 13 13 13 13 14 14 14 13 12 12 11 10 10 10 10 10 9 9 9 9 9 9 9 9 8 8 8 7 7 7 7 6 6 5 5 6 6 7 7 8 8 9 9 9 8 7 7 8 8 8 8 8 8 8 8 8 7 7 6 5 5
13 13 13 14 13 13 13 13 13 13 13 13 13 13 13 13 13 13 13 14 15 14 13 13 13 12 12 13 13 13 13 12 12 11 11 10 11 11 10 10 9 8 9 9 9 8 8 8 8 8 7 7 7 7 6 6 5 5 4 6 7 7 8 8 9 9 9 9 8 8 7 8 7 8 8 8 8 7 7 7 7 7 6 5 5
14 14 14 13 13 13 13 12 13 13 13 13 13 13 13 14 14 14 15 15 15 14 13 13 13 12 12 12 12 12 12 12 12 12 11 10 11 11 10 10 9 9 8 8 8 8 7 7 7 7 7 6 6 6 5 5 5 4 4 5 6 6 7 8 8 8 8 9 8 7 7 7 7 7 7 7 7 8 8 8 7 7 6 6 6
14 13 13 13 13 13 13 13 13 13 13 13 14 14 14 14 14 14 15 15 15 14 14 13 12 12 12 12 12 12 12 12 12 11 11 10 11 11 10 10 10 9 8 7 7 7 7 7 6 6 6 6 5 5 5 4 4 4 3 4 5 6 6 7 7 7 8 8 8 7 6 7 7 6 7 7 7 8 8 8 7 7 7 7 7
Height
837 836 835 835 836 836 836 836 836 836 836 837 837 838 838 838 839 839 840 841 841 842 842 843 844 845 846 846 847 848 849 850 851 851 852 853 853 853 853 854 854 855 855 856 857 857 858 858 858 859 859 859 859 859 860 860 860 860 860 861 861 861 860 860 860 860 860 859 859 859 859 859 859 859 860 860 860 860 860 860 860 859 859 859 859
836 835 835 835 835 835 835 835 836 836 836 836 836 837 838 838 838 838 839 839 840 841 842 842 843 844 846 846 847 848 849 849 850 851 852 853 853 853 853 853 854 854 855 855 856 857 858 858 858 859 859 859 859 860 860 860 860 860 860 861 861 861 861 861 860 860 860 860 859 859 859 860 859 859 860 860 860 860 860 860 860 860 860 860 860
836 835 834 834 834 834 834 834 835 835 835 835 835 836 836 837 837 838 838 838 839 840 841 841 842 843 845 846 847 848 848 849 849 850 851 852 853 853 853 853 854 854 855 855 856 857 857 858 858 859 859 859 859 860 860 860 860 860 861 861 861 861 861 861 861 860 860 860 860 860 860 860 860 859 859 860 860 860 860 861 861 861 861 861 861
833 833 833 832 832 833 833 833 834 834 834 834 834 835 835 836 837 837 838 838 839 840 840 841 841 843 844 845 846 847 848 848 849 850 851 852 852 852 852 853 854 854 854 855 856 857 857 858 858 858 859 859 859 860 860 860 860 861 861 861 861 861 861 861 861 861 860 860 860 860 860 860 860 860 859 860 860 860 860 860 861 861 861 861 861
830 831 832 832 832 832 833 834 835 834 833 833 833 834 835 836 836 837 838 838 839 839 840 841 841 842 843 844 846 847 847 848 849 850 850 851 851 852 852 852 853 854 855 855 855 856 857 857 858 858 859 859 859 860 860 861 861 861 861 861 861 862 862 861 861 861 860 860 860 860 860 860 860 860 860 860 860 860 860 860 861 861 861 861 861
829 830 831 831 831 831 832 834 834 833 831 831 833 833 834 834 834 836 837 838 838 839 840 840 841 842 843 844 845 846 847 848 849 849 850 850 851 851 850 850 851 853 854 855 856 856 857 857 858 858 858 859 859 860 860 861 861 861 861 861 861 861 862 862 861 861 861 861 860 860 860 860 860 860 860 860 860 860 860 861 861 861 861 861 861
828 829 830 831 831 830 831 833 833 832 831 831 832 833 832 832 833 835 836 837 838 839 839 840 841 842 843 844 845 846 847 847 848 849 849 849 850 850 850 850 850 851 853 854 856 857 857 858 858 859 859 859 859 860 860 861 861 861 861 861 861 861 861 861 861 861 861 861 861 861 860 860 860 860 860 860 860 860 861 861 861 861 861 861 861
827 828 830 831 831 831 831 831 832 832 831 830 831 832 833 833 834 835 836 837 837 838 839 840 841 842 844 845 845 846 847 847 848 848 848 849 849 849 850 850 850 851 852 853 855 857 858 858 859 859 860 860 860 860 861 861 861 861 861 861 861 861 861 861 861 861 861 861 861 860 860 860 860 860 860 860 860 860 860 861 861 861 861 861 861
827 828 830 830 831 831 831 831 832 832 832 831 831 832 834 834 835 836 837 837 837 839 840 840 841 842 844 845 846 847 847 848 849 848 848 849 849 849 851 851 851 852 852 853 854 856 856 857 859 859 860 860 861 861 861 861 861 861 861 861 861 861 860 860 860 860 860 861 861 860 860 860 860 860 859 859 860 860 860 860 860 861 861 861 861
827 828 829 830 831 831 831 832 832 833 833 834 834 834 835 836 836 837 838 838 838 839 840 840 841 842 844 845 846 847 848 848 849 849 849 849 850 850 852 852 852 853 853 853 854 855 856 857 858 859 859 860 861 861 861 860 860 860 860 860 861 860 860 860 860 860 860 860 861 860 860 860 860 859 859 859 859 859 859 859 860 860 860 861 861
828 829 829 830 830 831 832 832 833 833 834 834 835 836 837 838 837 838 838 838 838 838 840 841 842 843 844 845 846 847 848 849 849 850 850 850 850 851 852 852 852 852 853 853 854 856 857 857 858 858 858 860 861 861 860 860 860 860 860 860 860 860 859 860 860 860 860 860 860 860 860 860 860 859 859 859 858 858 858 858 859 859 859 860 860
829 829 829 830 830 831 832 833 833 833 834 834 834 836 838 838 837 838 837 837 838 839 840 841 842 843 844 845 846 847 848 849 850 850 850 851 851 851 851 852 852 852 853 853 854 855 856 857 857 857 857 859 860 860 860 860 860 860 859 859 859 859 858 859 859 859 859 859 859 859 859 859 859 859 858 858 858 858 858 858 858 858 858 858 859
829 830 830 830 830 831 832 832 833 833 834 834 834 836 837 837 837 838 838 838 838 839 841 842 842 843 844 846 847 848 848 849 850 850 850 851 851 851 851 852 852 853 853 854 854 855 856 856 857 857 857 858 858 859 859 859 859 859 859 859 858 858 858 858 858 858 858 858 858 858 858 858 858 858 857 857 857 857 857 857 857 857 857 858 858
829 830 830 830 831 831 832 832 833 834 834 835 836 836 836 837 838 838 838 839 839 840 841 842 842 842 843 844 846 848 848 849 849 850 850 850 851 851 851 852 852 853 853 854 855 855 855 856 856 857 858 858 858 858 858 858 858 858 858 858 857 857 857 857 857 857 857 857 857 857 857 857 857 857 857 857 857 856 856 856 856 857 857 857 857
829 830 830 831 831 831 832 832 833 834 834 835 836 836 836 837 837 838 838 839 839 840 841 841 841 841 842 842 843 845 847 848 848 849 850 850 851 851 851 851 852 853 854 854 855 856 856 856 857 857 858 858 858 858 858 858 858 857 857 857 856 856 856 856 856 856 856 856 856 856 856 856 855 855 856 855 855 855 855 855 856 856 857 857 857
829 830 830 831 831 831 832 832 833 833 834 835 835 835 836 836 837 837 838 838 838 840 841 842 841 841 840 840 842 843 844 846 848 848 850 850 850 851 851 851 852 853 854 854 855 856 857 857 857 858 858 858 858 859 858 858 858 857 857 856 855 855 855 855 855 855 855 855 855 855 855 854 854 854 854 854 854 854 855 855 855 856 856 857 857
830 830 831 831 831 831 832 832 833 833 833 834 834 835 835 835 836 837 838 838 838 839 841 842 842 841 840 840 842 842 841 844 848 849 850 850 851 852 852 852 852 853 853 855 856 857 857 858 858 858 858 858 858 858 858 858 858 858 857 856 855 855 854 854 854 854 854 854 854 853 853 853 853 853 853 853 853 853 854 854 855 855 856 856 856
830 831 831 831 831 832 832 832 832 832 833 833 834 834 834 835 836 836 837 837 837 839 840 841 841 841 841 841 842 842 842 844 847 850 851 851 852 852 852 853 853 853 854 855 856 857 858 858 858 858 858 859 859 859 859 858 858 858 857 856 855 855 854 854 854 853 853 852 852 851 851 851 851 852 852 852 852 852 853 853 854 854 855 855 856
832 832 832 832 832 832 832 832 832 832 833 833 833 834 834 835 835 836 836 837 837 838 839 840 840 840 841 842 842 843 845 844 846 850 851 851 853 853 853 854 854 855 855 856 857 857 858 858 859 859 859 859 859 859 859 859 858 857 856 856 855 855 854 854 853 853 852 851 850 850 849 849 850 850 850 850 851 852 852 852 853 853 854 854 855
832 832 832 832 832 832 832 832 832 833 833 833 834 834 834 835 835 836 836 837 837 837 838 838 839 840 841 843 843 843 845 844 846 848 847 848 851 852 854 855 855 856 857 857 858 858 859 859 860 860 860 860 860 860 860 860 859 858 857 856 855 855 854 854 853 852 851 850 849 849 848 848 848 849 848 848 849 851 851 851 852 852 853 853 854
833 833 833 833 833 832 832 833 833 833 834 834 834 834 835 835 835 836 837 837 837 837 837 838 839 840 841 842 843 843 844 844 845 845 842 844 849 851 854 856 856 858 858 859 859 860 860 861 861 861 861 861 861 861 861 860 859 859 858 857 856 856 855 854 853 852 851 850 849 848 847 847 847 847 847 846 847 849 849 850 851 851 851 852 853
833 833 833 833 833 833 833 833 834 834 835 835 835 835 836 836 836 837 837 837 838 838 838 839 839 840 841 841 842 842 843 843 843 843 841 843 847 850 852 854 856 858 859 860 860 861 861 862 862 862 862 863 863 862 862 861 860 859 859 858 857 856 855 854 853 852 851 850 849 848 847 846 846 846 846 845 846 847 847 848 849 849 850 851 852
832 833 834 834 834 834 834 834 835 835 836 836 836 837 837 838 838 838 838 838 839 839 840 840 841 841 842 842 842 842 843 843 842 842 842 843 846 849 850 852 855 858 860 861 861 861 862 863 863 863 864 864 864 864 863 862 861 860 859 858 857 856 855 854 853 852 851 850 849 848 847 846 846 846 845 844 845 846 846 848 848 848 848 849 850
832 833 834 834 834 835 835 835 835 836 836 836 837 837 838 838 839 839 839 839 840 840 841 842 842 843 843 843 843 843 843 843 843 843 843 845 847 848 850 852 854 857 860 861 861 862 863 863 864 864 864 865 865 865 864 863 862 861 860 859 858 857 855 854 853 852 851 850 849 848 848 847 846 846 845 844 845 845 846 846 846 846 847 848 849
832 833 834 835 835 835 836 836 836 836 837 837 837 838 839 839 840 840 841 841 842 842 843 843 844 844 844 845 844 844 845 845 845 846 846 847 848 849 849 851 853 856 859 860 861 862 863 864 865 865 865 865 865 865 865 864 863 862 861 860 858 857 856 855 854 853 852 851 850 848 848 847 847 846 846 845 845 845 845 846 846 846 847 847 847
832 833 834 835 835 835 836 836 836 837 837 838 838 839 840 840 841 842 842 843 843 843 844 845 845 846 846 846 846 847 847 847 848 848 848 848 849 849 850 852 854 854 856 858 859 861 863 865 865 866 866 866 866 866 865 864 863 862 861 860 859 858 857 856 855 854 853 852 851 850 849 848 847 847 846 846 845 845 846 846 846 846 846 846 846
832 833 834 835 835 835 836 836 837 837 838 839 840 841 841 842 843 843 844 844 845 845 846 846 847 847 848 848 848 848 848 849 849 849 849 849 849 850 851 852 854 854 855 856 859 861 863 865 866 866 866 866 866 866 865 865 863 862 862 861 860 859 858 857 856 855 854 853 852 851 850 849 848 847 846 846 845 845 845 845 845 845 845 844 844
832 833 834 835 836 836 836 837 838 838 839 840 841 842 843 843 844 845 845 846 846 847 847 848 848 849 849 849 849 849 850 850 850 850 851 851 851 852 852 852 853 854 856 856 858 861 863 864 865 867 867 867 867 866 866 866 864 863 863 862 860 859 858 857 856 856 855 854 853 852 851 850 849 848 847 846 846 845 845 844 844 843 843 842 842
832 833 834 835 836 837 837 838 839 839 840 841 842 843 844 844 845 846 847 847 848 848 848 849 849 850 850 851 851 851 851 852 852 853 853 853 854 854 854 853 852 852 854 856 858 861 864 865 865 866 867 867 867 867 866 866 864 864 864 863 861 859 858 857 857 856 855 854 854 853 852 851 850 849 848 847 846 845 845 844 843 842 842 841 841
832 833 834 835 836 837 838 839 839 840 841 842 843 844 845 846 846 847 848 849 849 849 850 850 851 851 852 852 852 853 853 854 854 854 855 855 855 855 855 855 854 852 852 855 859 862 864 866 866 866 867 867 867 867 866 866 864 864 864 863 861 860 858 857 857 856 855 854 853 852 851 850 849 849 848 847 846 846 845 844 843 842 841 841 840
832 833 834 835 837 837 838 839 840 841 842 843 844 845 846 847 848 849 849 850 850 851 851 851 852 852 853 853 854 854 855 855 856 856 856 856 856 856 856 856 856 855 854 854 859 863 865 866 867 867 867 867 867 867 866 866 864 864 864 864 862 860 858 857 856 855 854 853 852 852 851 850 849 848 847 846 846 845 844 844 843 842 841 840 840
832 833 834 835 837 837 838 839 840 842 843 844 845 846 847 847 848 849 850 851 851 852 852 853 853 854 854 855 856 856 857 857 857 858 858 858 858 857 858 858 858 858 857 856 859 864 866 866 867 867 867 867 867 866 866 866 864 864 864 863 862 860 859 858 857 855 854 853 852 851 850 849 848 847 846 846 845 844 843 842 842 841 840 839 839
832 833 834 835 836 837 838 839 841 842 843 844 845 846 847 848 849 850 851 851 852 852 853 853 854 855 855 856 857 857 858 858 858 859 859 859 859 859 859 859 859 859 859 858 860 863 865 866 867 867 867 866 866 866 866 865 864 864 863 863 862 861 861 859 857 856 854 853 852 851 850 849 848 846 845 845 844 843 842 841 840 840 839 838 837
832 833 834 835 836 837 838 839 841 842 843 844 846 847 848 849 849 850 851 852 852 853 853 854 854 855 856 856 857 858 858 859 859 859 859 859 859 859 860 860 860 860 860 859 860 861 864 865 866 866 866 866 866 866 865 865 864 864 863 862 862 861 860 859 858 856 854 853 852 851 850 848 847 846 845 843 842 841 840 839 839 838 837 836 835
832 833 834 835 836 837 838 839 840 842 843 844 845 846 847 849 849 850 851 852 852 853 853 854 854 855 856 856 857 858 858 859 859 859 859 860 859 860 860 861 861 861 861 861 860 861 862 864 864 865 865 865 865 865 865 864 863 863 862 862 861 860 859 858 858 856 854 852 851 850 849 848 846 845 843 842 841 840 839 838 837 836 835 834 833
831 832 833 834 835 836 837 839 840 841 842 844 845 846 847 848 849 850 851 852 852 853 853 854 854 855 856 856 857 858 858 859 859 860 860 860 860 860 861 862 862 862 862 862 861 861 861 862 863 863 864 864 864 864 864 863 862 862 861 861 860 859 858 857 857 855 853 851 849 848 847 846 845 843 842 841 839 838 837 836 835 834 833 832 831
831 831 833 834 835 836 837 838 839 840 841 843 844 845 846 847 848 850 850 851 852 852 853 853 854 854 855 856 856 857 858 858 859 859 860 860 860 861 861 861 862 862 863 863 863 862 861 861 862 863 863 863 863 863 863 862 862 861 860 860 859 858 857 856 855 854 851 849 847 846 845 844 842 841 840 839 838 837 835 834 833 832 831 830 829
830 831 832 833 834 835 837 838 838 839 840 841 842 844 845 846 847 848 849 850 851 852 852 853 853 854 854 855 856 856 857 858 858 859 859 860 861 861 861 862 862 862 863 862 862 863 862 861 862 862 862 862 862 862 862 862 861 860 860 859 858 857 856 855 854 852 851 849 847 846 844 843 842 840 838 837 836 835 833 832 831 830 829 827 826
829 830 831 832 833 835 836 837 838 838 839 840 841 843 844 845 846 847 848 849 850 850 851 852 852 853 853 854 854 855 856 856 857 857 858 859 860 861 861 862 862 862 862 862 862 862 862 861 861 861 861 861 862 861 861 861 861 860 859 859 857 856 856 854 853 851 850 848 847 845 843 841 840 838 836 835 833 832 831 830 829 828 826 825 824
828 829 830 831 832 833 834 836 837 837 838 839 840 841 843 843 845 845 846 847 848 849 850 850 851 851 852 852 853 854 854 855 856 856 857 858 859 859 859 861 862 862 862 862 861 861 861 860 860 860 860 860 860 860 861 860 860 860 860 859 857 856 854 853 852 850 849 847 846 845 843 840 838 837 835 833 831 830 829 828 827 825 824 823 823
827 828 829 829 830 832 833 834 835 836 837 838 838 840 841 842 843 844 845 845 847 848 848 849 849 849 850 851 851 852 852 853 854 854 855 856 857 858 858 859 861 861 861 861 860 859 859 858 858 859 859 858 858 860 861 860 860 860 860 859 857 855 854 852 850 849 848 846 845 843 842 840 838 836 835 834 831 829 828 827 826 824 823 822 821
825 826 827 828 829 830 831 832 833 833 834 835 836 837 838 839 841 842 842 843 844 845 846 847 847 847 848 849 849 849 850 851 852 853 853 854 855 857 858 858 859 860 860 860 859 859 858 857 857 859 859 858 858 860 860 860 860 860 859 858 857 855 853 851 849 848 847 845 844 842 840 839 837 835 833 833 831 829 828 827 825 824 822 821 820
824 825 826 826 827 829 829 830 831 831 832 833 833 835 836 837 838 839 840 841 841 843 844 845 845 845 846 846 847 847 848 848 849 850 851 852 853 855 856 857 857 858 858 859 859 859 859 858 858 859 859 859 859 860 860 859 860 859 859 858 856 854 853 850 848 847 846 845 843 840 838 837 836 833 831 830 829 827 826 825 823 822 821 819 818
822 823 824 825 826 827 827 828 829 829 830 830 831 832 833 834 835 836 838 839 839 840 841 842 843 843 843 844 845 846 846 847 848 848 849 850 852 853 854 855 856 857 857 858 858 859 859 859 859 859 859 859 859 859 859 859 859 859 858 857 855 854 853 851 848 846 845 844 842 839 836 835 834 832 829 828 827 825 824 822 820 819 818 817 816
821 822 823 823 823 824 825 826 827 828 828 829 829 830 830 831 833 833 835 836 837 838 839 840 841 841 841 842 843 844 844 845 846 847 847 848 849 851 852 853 854 855 856 856 857 858 858 859 859 859 859 859 859 859 859 859 858 858 857 856 855 853 852 850 848 846 844 843 841 838 835 833 832 830 828 826 825 823 821 819 817 816 815 815 814
820 821 821 821 822 822 822 824 825 825 826 826 827 828 828 829 830 831 832 833 834 836 838 838 839 839 840 840 841 842 843 843 844 845 846 846 847 849 850 852 853 854 855 856 856 857 858 858 859 859 859 859 859 859 858 858 857 857 856 855 854 852 851 849 846 844 842 840 839 837 833 831 830 828 826 824 823 821 820 818 816 814 813 812 811
817 818 819 820 820 820 820 821 822 823 823 823 824 825 826 828 828 829 831 831 833 835 836 837 837 837 838 838 839 840 841 842 842 843 844 844 845 847 849 851 852 853 854 854 855 856 857 857 858 858 858 858 858 858 858 857 857 856 855 854 852 850 848 846 843 841 839 838 837 836 832 829 828 826 824 822 821 819 817 816 814 812 811 810 809
815 815 816 817 817 817 818 818 819 820 820 821 822 823 824 826 827 828 830 831 832 834 835 835 836 836 837 837 838 838 839 840 840 841 842 843 844 846 848 850 851 851 852 853 854 855 855 856 856 856 856 856 856 856 856 855 855 854 853 852 850 848 846 843 840 838 837 836 835 834 830 827 827 825 822 820 819 816 815 814 812 810 808 808 807
813 813 814 815 815 815 816 816 817 818 819 819 820 821 823 825 826 827 829 830 831 832 833 834 835 835 835 835 836 837 838 838 838 839 840 842 844 845 847 849 850 851 851 852 853 853 854 854 854 855 855 855 854 854 853 853 852 852 851 850 848 847 845 842 838 836 835 834 833 832 829 826 825 823 820 818 817 815 812 811 810 808 806 805 805
811 812 812 813 814 815 815 816 816 817 818 818 819 821 822 823 825 827 828 828 830 831 832 833 833 833 833 834 835 836 836 836 837 838 839 841 843 845 846 847 849 850 851 851 852 852 852 853 853 853 853 852 852 851 850 849 849 849 849 848 847 845 843 840 837 835 833 832 830 829 828 825 823 822 819 816 814 812 810 809 808 807 805 803 802
810 810 811 811 813 814 815 815 816 816 817 818 819 820 822 823 824 826 826 827 828 830 831 832 833 833 833 833 834 835 835 835 836 837 838 841 843 844 845 847 848 849 850 851 851 852 852 852 852 851 851 850 849 848 847 846 846 846 846 846 845 844 842 839 837 835 832 830 829 829 827 825 823 821 820 816 812 809 809 808 807 805 804 803 801
Wind_Speed
7 6 6 5 5 6 6 6 6 6 7 7 7 7 7 7 7 8 7 7 6 6 5 5 6 6 6 6 7 6 6 6 6 5 5 6 5 3 5 6 7 8 7 7 5 6 6 4 4 4 4 4 2 0 1 2 4 4 5 6 7 8 8 7 7 6 5 4 4 5 5 4 4 5 5 5 5 5 6 6 5 5 5 5 5
6 5 4 4 5 6 7 7 6 6 7 7 7 7 6 7 7 7 8 8 7 6 6 6 6 6 6 6 7 6 6 6 6 5 5 6 5 4 5 6 7 8 8 8 6 5 5 5 5 4 3 4 3 1 1 1 2 2 3 4 5 6 7 7 7 6 5 5 4 4 4 3 3 3 5 5 4 5 5 5 4 5 5 5 5
4 4 4 5 5 7 8 8 8 8 8 7 7 6 6 6 6 7 8 8 7 7 6 6 7 7 7 7 6 6 6 6 5 5 5 5 5 5 5 5 7 8 8 8 8 6 5 5 6 5 4 3 3 3 2 1 1 0 1 2 3 3 5 6 6 6 5 5 4 3 2 2 2 2 3 4 4 4 4 4 4 5 5 4 4
6 5 5 6 6 8 9 9 9 9 8 7 6 6 6 6 6 6 7 8 8 7 6 5 6 6 6 6 6 6 5 5 5 5 5 5 5 6 5 5 6 7 8 8 8 8 6 4 5 5 4 4 3 4 4 3 2 2 2 1 2 1 3 4 4 5 4 5 5 4 3 2 2 1 2 3 3 3 4 4 4 4 4 4 4
9 6 5 6 7 8 7 8 8 8 7 7 7 7 8 7 6 7 7 8 8 7 6 5 5 5 5 4 4 4 4 4 4 5 5 5 5 5 6 7 6 5 7 8 8 8 6 5 5 5 4 5 4 4 4 3 3 3 3 3 2 1 1 2 3 4 3 3 4 5 5 4 2 2 1 1 2 2 3 4 4 4 3 3 3
9 7 6 6 7 7 7 8 7 7 7 8 7 7 8 7 7 7 7 8 7 8 7 6 5 5 4 4 4 3 3 4 4 5 5 4 5 4 5 6 6 6 6 6 6 7 7 5 4 4 4 4 4 4 4 4 2 3 3 3 2 2 1 1 2 3 3 3 3 4 5 5 4 4 3 2 0 1 2 3 4 5 4 3 3
10 10 7 7 8 7 7 7 7 6 6 6 7 7 7 6 6 5 6 7 7 7 6 6 6 5 4 3 3 3 3 4 4 5 5 5 5 5 4 4 4 5 6 4 3 4 4 4 4 3 2 3 3 3 4 4 2 1 2 2 2 2 3 2 2 2 2 2 3 4 4 4 4 5 4 4 2 1 1 2 3 5 5 4 3
6 8 7 7 8 7 6 6 6 5 3 4 5 6 5 5 4 4 5 6 7 7 6 6 6 5 5 3 3 2 3 3 4 4 4 5 5 4 3 2 2 3 3 2 3 3 2 2 3 2 2 1 2 2 2 4 4 3 3 3 2 2 3 3 3 2 2 2 0 2 3 3 3 3 4 4 3 2 2 2 3 4 5 5 5
3 4 5 5 6 5 5 4 4 4 3 3 4 5 4 4 3 3 5 4 5 7 6 6 7 6 5 4 3 3 2 3 3 3 3 3 1 0 0 1 1 1 1 2 2 3 2 1 1 1 1 1 1 1 1 3 4 5 5 5 5 4 4 3 3 3 4 4 4 2 1 1 1 2 3 3 3 3 3 2 4 4 4 5 6
3 4 4 4 3 3 3 3 3 3 3 3 2 2 3 4 3 3 5 4 4 6 6 7 7 7 6 5 4 3 3 3 2 2 1 1 2 1 1 1 2 2 3 2 2 0 2 1 1 2 2 1 1 2 2 3 3 5 5 5 6 7 7 5 4 4 5 6 6 6 4 3 1 2 3 4 4 3 3 3 4 5 4 5 6
4 4 4 4 3 2 2 2 2 2 3 3 1 1 0 3 4 4 4 4 4 5 6 7 7 6 6 5 4 4 3 3 2 2 2 3 2 0 2 2 4 4 5 3 0 0 1 2 2 2 3 3 2 4 5 5 4 4 5 4 4 6 8 8 6 6 7 7 7 8 7 7 5 3 4 5 5 4 4 3 4 5 5 5 6
3 4 4 4 3 2 2 2 2 1 2 3 1 1 2 4 5 5 5 6 5 5 6 6 6 6 6 5 5 4 4 4 3 3 4 3 1 1 2 3 3 3 3 3 1 1 0 1 1 1 3 4 3 4 4 5 5 6 7 7 6 6 7 8 8 9 9 9 8 9 9 9 8 7 5 5 6 5 5 4 4 5 6 6 6
3 3 3 3 2 2 2 1 1 1 1 2 2 1 2 3 4 5 6 6 6 6 6 7 7 6 6 5 4 3 3 4 3 2 3 2 1 1 0 1 1 0 1 1 1 0 1 2 1 2 1 3 3 5 5 5 3 4 6 7 7 8 8 7 8 10 12 12 12 11 11 10 9 9 8 7 7 6 6 6 5 6 6 6 6
4 4 3 3 3 2 2 1 0 1 1 1 2 2 2 3 4 5 5 5 5 6 7 7 7 6 5 5 5 4 3 3 3 3 2 2 2 1 1 1 1 2 1 1 1 1 2 2 3 3 3 2 3 5 5 4 4 6 7 6 7 8 9 8 9 9 11 13 14 14 14 13 12 11 10 10 9 8 7 7 6 6 7 7 7
6 5 5 4 3 3 2 1 1 1 1 2 2 3 3 4 5 5 4 5 5 6 7 6 6 6 5 4 4 4 4 4 4 4 3 2 2 2 2 2 2 3 3 2 2 2 3 4 4 5 6 6 5 4 4 3 6 7 6 6 6 7 8 9 9 9 9 11 13 14 15 16 15 13 11 11 11 10 9 8 7 7 7 7 7
6 6 6 6 5 3 3 2 2 1 1 1 2 3 4 4 6 6 5 6 5 5 6 6 5 5 4 3 3 4 4 5 5 5 4 3 3 3 3 3 3 4 4 4 4 4 4 5 6 7 7 7 6 5 4 5 7 8 9 10 8 6 7 8 10 10 10 10 11 13 15 17 18 16 14 12 12 12 11 9 8 7 7 7 8
5 5 6 6 5 4 3 2 2 1 1 1 2 3 4 4 6 7 7 6 5 5 5 6 6 5 3 1 2 3 2 5 7 5 4 4 4 4 4 4 4 4 4 5 5 5 5 6 7 7 7 7 7 6 6 6 7 6 8 11 9 7 7 6 8 10 11 12 12 12 13 16 18 18 16 14 14 13 12 11 9 9 9 9 9
5 5 5 5 4 3 2 2 2 1 1 1 2 2 4 4 4 6 7 6 7 7 6 6 6 5 4 1 0 1 1 4 5 2 4 6 6 5 5 5 5 5 5 6 6 7 7 7 8 9 9 9 8 8 8 8 7 5 5 8 8 7 7 6 7 9 10 12 13 14 14 14 14 16 17 17 16 15 13 12 11 11 11 11 11
5 5 5 5 4 4 3 3 3 2 2 2 2 2 2 3 3 4 5 5 6 7 6 5 6 6 5 4 3 2 2 2 3 2 4 6 6 6 7 7 8 8 8 8 8 8 8 8 9 9 10 10 10 10 10 9 9 8 7 7 7 7 7 7 7 8 9 10 11 13 13 13 13 15 17 17 18 17 15 13 13 12 12 12 12
5 5 5 4 4 5 5 5 5 4 4 3 3 3 2 2 3 3 4 4 5 5 5 5 5 4 5 6 5 3 3 3 4 7 4 5 6 7 9 9 10 10 9 9 9 9 9 8 9 9 10 10 11 11 11 10 11 12 11 9 8 8 7 6 7 8 9 9 10 12 12 11 12 15 17 17 17 17 16 15 14 13 13 13 13
5 5 4 4 4 5 6 6 6 5 5 5 5 5 4 3 2 2 3 3 3 3 3 4 4 4 5 5 4 4 5 5 7 10 5 5 5 6 9 9 10 10 9 10 10 10 9 9 9 9 9 10 10 11 11 11 11 11 11 10 10 9 8 7 7 8 8 9 8 8 7 8 9 11 16 16 15 16 17 16 15 14 14 14 15
5 5 5 5 5 6 6 6 6 6 5 5 5 5 4 4 3 3 3 3 3 2 3 4 3 3 4 5 5 6 6 5 5 6 3 5 5 6 9 9 9 9 8 9 9 9 9 8 8 8 9 9 9 10 11 11 11 11 10 10 10 10 9 8 7 7 6 7 9 8 6 5 6 7 11 14 14 15 17 18 16 15 15 16 16
7 6 5 6 6 6 6 6 6 5 5 5 4 4 4 4 4 4 4 4 3 3 3 3 3 3 3 3 5 5 5 5 5 5 4 5 5 6 8 9 10 9 8 8 8 8 8 8 8 8 8 8 8 9 10 11 10 10 10 9 9 10 10 10 10 9 7 6 7 8 8 8 7 7 9 8 10 13 14 14 14 14 16 16 17
9 8 6 6 6 6 6 6 5 5 5 5 5 5 5 5 5 5 5 5 5 4 4 5 4 4 4 3 3 3 2 2 4 5 5 5 6 6 7 8 9 9 9 8 7 8 7 7 8 7 7 8 8 8 9 9 9 10 9 9 9 10 10 11 11 11 9 8 8 8 7 8 7 8 11 9 3 7 9 11 11 13 15 15 17
9 9 7 6 6 6 6 6 6 6 6 6 7 7 6 6 6 6 6 6 5 5 5 6 6 5 5 4 3 3 3 2 2 3 4 6 6 6 7 7 7 8 9 8 7 7 7 7 7 7 7 7 7 8 8 8 8 8 9 9 10 10 11 11 11 11 10 9 9 9 7 6 6 5 6 7 5 2 4 6 8 10 11 11 12
10 9 8 6 6 7 7 7 7 7 8 8 8 8 7 7 7 7 7 7 7 7 7 7 7 5 5 4 5 5 5 4 3 3 4 5 6 6 6 6 6 6 7 7 6 5 6 6 6 6 6 7 7 6 7 7 6 7 8 9 9 10 10 10 10 10 10 10 9 9 9 8 6 5 4 4 3 2 2 4 5 5 6 7 8
10 9 8 7 8 9 9 9 9 8 9 9 8 8 7 7 8 8 8 8 8 8 7 7 6 6 5 5 5 6 5 5 4 3 3 3 5 6 5 5 5 4 5 6 5 5 5 5 6 6 6 6 6 5 6 5 4 6 7 7 7 8 8 8 9 9 9 9 9 9 9 9 8 6 5 4 4 4 4 4 5 5 6 8 9
11 10 9 8 9 10 10 10 10 9 9 9 8 7 7 8 8 8 8 7 7 7 7 7 6 6 6 6 6 7 7 6 5 5 4 3 4 5 5 5 4 4 4 4 5 5 3 3 5 7 6 5 5 5 5 4 4 6 6 4 4 5 5 6 7 7 7 7 7 7 7 8 8 7 6 5 5 5 5 6 6 7 8 10 11
12 10 9 9 10 10 11 11 11 10 9 8 8 7 7 8 8 7 7 7 7 7 7 7 7 7 7 7 7 8 7 7 7 7 6 5 4 4 3 3 3 3 4 3 3 5 4 3 4 6 6 5 5 4 5 4 3 5 4 3 3 5 5 6 7 7 7 6 6 7 6 7 7 6 6 6 5 6 6 6 7 7 8 9 10
13 12 11 10 10 11 11 11 11 10 9 9 8 8 8 8 8 8 7 7 7 7 7 7 7 7 7 7 7 7 7 7 7 7 6 6 5 4 3 1 0 0 2 4 4 4 5 4 5 5 5 5 5 4 5 4 4 5 4 3 3 6 6 6 8 8 8 8 7 8 8 8 8 8 8 7 7 7 7 7 7 8 8 9 10
13 13 12 11 11 11 11 11 11 10 10 9 9 8 8 9 8 8 8 8 8 8 8 8 7 7 7 7 7 7 7 7 6 6 6 6 6 5 6 5 5 4 2 3 5 4 4 4 4 4 4 5 4 4 4 4 5 5 3 2 3 7 8 9 10 9 9 9 8 8 9 9 9 10 10 10 10 9 9 9 9 10 10 10 11
13 13 12 12 11 11 12 11 11 10 10 9 9 9 9 8 8 8 8 8 8 9 8 7 7 7 7 7 7 6 6 5 5 5 5 6 6 6 7 7 7 6 4 4 6 6 4 4 4 3 3 3 4 4 3 2 4 4 3 2 4 6 6 7 11 11 10 9 9 9 9 9 10 10 11 12 12 12 12 13 12 12 13 13 13
13 13 12 12 12 11 12 11 11 11 10 10 9 9 9 8 8 8 8 8 8 8 8 7 7 7 7 7 6 5 5 5 5 5 5 5 5 5 5 6 6 5 4 5 7 7 5 3 3 3 2 1 2 3 3 2 2 2 2 2 3 4 3 5 8 11 11 9 8 8 8 9 10 11 12 13 13 14 14 15 15 15 16 16 16
12 13 12 12 12 12 11 11 11 11 11 10 9 9 9 9 8 8 8 8 8 8 7 7 7 7 6 6 6 5 4 5 4 4 5 4 4 5 4 4 5 5 4 4 5 6 6 5 4 3 2 1 1 2 2 2 2 2 2 2 3 2 4 5 5 9 11 9 7 8 9 9 11 11 13 13 14 15 15 16 16 17 17 18 18
12 12 12 12 12 12 12 11 11 11 11 10 9 9 9 9 8 8 7 7 7 7 7 7 7 7 6 6 6 5 5 5 4 3 4 3 2 4 4 3 4 4 3 2 3 4 5 5 4 3 2 1 0 1 1 2 2 3 3 3 3 2 4 6 5 7 10 10 8 9 10 10 11 11 12 13 13 14 15 15 16 17 17 18 19
11 11 11 12 12 12 12 12 11 11 10 10 9 9 9 9 8 8 7 7 6 6 6 6 6 6 6 6 6 6 5 5 4 3 3 3 2 3 3 3 3 3 3 2 1 2 4 5 3 2 1 1 1 1 3 3 3 3 4 4 5 4 4 7 6 7 11 14 14 15 16 16 15 14 13 12 12 12 12 14 15 16 17 18 19
11 11 11 11 11 11 11 12 12 11 11 11 10 9 9 8 7 7 6 6 6 6 5 6 5 5 6 5 6 6 5 5 4 3 3 3 2 2 2 2 3 2 2 2 1 0 1 3 3 2 1 1 1 1 3 5 5 5 5 5 6 5 5 8 8 7 11 15 16 18 20 19 18 18 16 13 12 11 11 12 13 14 16 18 19
11 11 11 11 11 10 10 11 11 12 12 11 11 11 10 9 8 7 7 6 6 6 6 6 6 6 6 6 6 7 6 6 5 4 4 3 2 1 1 1 1 2 1 1 1 0 0 1 2 2 1 1 1 2 2 5 6 5 6 8 8 6 7 9 10 8 8 10 12 15 17 16 17 18 18 17 14 12 12 13 12 12 14 16 17
11 11 10 10 10 9 9 10 11 11 11 11 11 11 10 10 9 8 8 7 7 7 7 7 7 7 7 7 7 8 8 7 7 6 6 5 4 2 1 1 2 1 2 1 1 1 1 1 1 1 1 1 1 3 3 4 5 5 7 10 10 9 9 10 11 10 7 9 12 14 16 18 18 18 18 19 17 15 16 15 13 13 13 14 15
11 10 10 10 10 9 9 9 10 10 10 10 10 10 9 9 8 8 7 7 6 7 7 7 7 8 9 9 9 9 9 10 9 8 8 8 7 6 6 4 3 3 2 2 2 3 3 3 4 3 2 3 3 3 4 5 6 7 8 10 11 12 12 12 12 11 8 9 12 13 15 17 16 15 16 16 15 16 18 17 14 13 14 15 15
10 10 10 10 10 10 10 9 9 9 9 9 9 9 8 8 7 7 7 6 6 6 7 8 8 9 10 10 11 11 12 13 12 11 11 11 9 8 8 7 6 5 4 4 4 4 4 5 6 5 5 7 6 5 5 6 6 8 9 10 11 13 14 14 13 11 8 10 12 14 15 14 13 14 13 12 12 15 16 14 10 12 17 19 18
9 9 10 10 10 11 11 11 11 10 9 10 11 11 10 9 8 7 7 7 6 7 8 9 9 10 10 10 11 13 14 14 14 13 13 13 12 10 8 8 8 7 5 5 5 4 5 6 6 5 6 7 6 4 5 5 6 8 9 11 12 13 14 14 13 11 7 8 12 16 17 15 13 13 13 11 11 12 12 8 8 13 18 19 18
9 9 10 11 11 11 11 12 12 11 10 11 11 11 11 11 9 8 7 7 8 9 10 10 10 10 10 10 10 11 11 11 13 14 14 14 13 12 11 11 10 9 7 5 4 3 4 6 5 4 6 6 5 5 6 6 7 9 10 12 13 13 13 13 14 13 9 9 14 18 19 15 12 13 14 12 12 11 10 12 15 18 18 17 17
8 9 9 9 10 10 11 12 12 11 12 12 11 11 12 13 11 9 8 7 8 9 10 10 10 9 9 9 8 8 8 9 12 13 14 15 14 14 14 14 13 12 10 7 4 2 2 4 4 5 5 5 6 6 5 6 8 10 12 12 12 12 13 14 15 15 13 13 16 18 18 15 13 14 14 13 12 13 13 16 19 20 18 18 18
8 9 9 9 10 11 11 12 13 12 12 14 14 14 15 14 13 12 10 9 9 9 9 9 9 8 7 7 7 8 7 8 9 10 12 14 16 16 16 15 14 14 12 9 7 5 3 3 4 5 4 4 7 6 5 7 9 11 12 13 12 13 14 14 16 18 18 16 16 16 17 16 13 14 15 14 13 13 14 16 19 21 21 21 20
9 8 9 10 11 12 12 13 14 13 14 16 17 17 16 15 14 13 12 10 9 8 7 7 7 6 6 6 6 7 7 6 7 9 10 13 16 18 16 14 14 13 10 8 7 6 4 3 4 4 3 4 6 5 5 8 9 10 11 13 13 15 16 17 18 20 19 16 14 14 16 15 14 14 15 15 14 14 14 16 19 21 22 21 20
12 11 12 12 11 12 14 14 14 14 14 16 16 17 16 15 14 13 11 10 8 8 7 6 5 5 5 5 5 6 6 6 7 9 11 11 13 16 15 12 10 10 9 7 6 5 3 3 3 3 3 5 6 6 6 8 8 9 11 13 15 16 17 17 18 17 17 14 11 12 15 16 15 15 16 14 15 16 15 16 19 21 21 20 21
14 14 13 12 11 12 13 13 12 12 14 15 16 16 16 14 14 13 11 10 9 8 7 5 4 4 4 4 5 5 5 6 9 10 12 11 12 14 14 12 10 9 10 10 8 6 6 6 6 6 7 9 11 11 11 11 10 10 11 13 15 15 15 16 16 15 14 12 9 11 16 17 15 15 16 15 16 17 17 17 18 18 18 18 19
12 12 12 12 11 11 11 11 11 10 11 13 15 15 15 15 15 13 11 10 9 8 7 5 5 5 5 5 5 4 5 8 9 10 12 12 13 14 13 12 10 8 9 9 7 7 8 8 9 10 10 11 13 14 14 14 13 11 11 12 13 12 14 15 15 15 14 13 13 13 15 16 15 16 17 17 16 18 18 16 14 14 15 17 17
10 10 9 8 8 9 9 10 10 9 10 13 14 15 16 16 16 13 10 10 9 8 7 6 5 5 5 6 6 6 6 7 8 9 12 13 12 12 12 11 10 8 7 7 6 7 8 8 9 10 11 12 13 14 13 13 14 12 11 12 12 13 14 14 15 16 15 15 13 9 11 15 16 15 17 18 17 17 15 13 12 12 15 17 18
10 9 9 8 9 9 10 12 12 10 10 13 14 14 15 15 16 13 10 9 9 8 8 8 7 6 6 6 7 7 6 7 8 10 14 12 9 10 11 9 8 7 6 5 4 3 4 5 6 8 10 11 12 11 11 13 16 14 11 12 12 13 14 15 15 15 14 12 10 7 10 15 16 15 16 16 15 13 13 12 12 13 15 16 17
Wind_Direction
208 193 189 186 186 189 192 190 188 181 180 185 185 183 178 175 171 164 162 162 163 168 172 180 185 181 173 162 161 164 164 162 159 157 148 140 145 130 118 130 141 149 157 154 156 158 156 160 155 151 142 143 169 254 108 80 44 51 56 48 46 44 40 41 43 45 54 63 68 75 81 88 94 95 90 82 75 81 88 81 75 76 76 73 70
211 204 194 191 196 198 198 196 196 189 188 190 186 182 180 174 169 163 162 161 161 164 168 175 177 174 176 170 166 167 165 167 165 164 158 146 155 154 131 132 134 140 153 152 149 154 156 164 165 158 154 147 150 156 119 72 52 61 50 36 36 41 39 33 28 24 34 50 64 83 91 96 97 99 108 107 91 85 92 87 82 83 79 75 70
209 210 210 203 206 216 209 199 200 199 195 191 186 183 180 175 169 166 164 161 158 160 164 170 172 171 178 177 171 172 174 177 175 172 168 154 154 152 142 140 135 134 144 149 148 151 148 159 169 165 168 165 154 164 178 241 241 1 10 15 16 41 43 29 24 15 17 28 33 66 91 91 96 99 111 119 117 112 108 100 95 90 81 70 58
213 224 228 216 216 229 223 207 202 200 195 188 187 183 178 176 171 168 166 161 156 158 159 165 171 168 173 173 167 175 180 181 178 172 167 161 155 149 148 147 139 137 141 148 152 150 139 147 165 163 169 175 172 178 183 207 216 217 252 307 346 18 40 26 27 20 7 11 12 24 39 39 56 70 98 125 133 132 126 119 111 102 95 81 60
220 232 240 239 234 235 237 229 213 202 195 188 188 185 181 177 169 168 171 167 159 157 156 160 166 167 172 168 168 179 178 176 174 169 165 164 164 160 169 167 155 146 141 144 151 154 149 145 153 155 163 174 181 187 186 200 188 186 239 275 314 312 20 26 29 26 14 9 9 12 15 17 16 6 18 107 136 138 138 136 128 122 118 103 86
225 235 237 245 249 244 244 242 228 213 200 193 190 189 188 177 168 169 174 175 165 159 159 157 162 166 170 172 174 180 179 173 168 172 170 165 176 183 188 176 158 162 162 148 144 155 162 158 154 147 142 153 172 186 188 199 194 170 222 260 277 291 310 0 18 20 17 18 21 13 5 7 9 2 2 16 36 155 158 156 146 145 146 131 120
236 243 241 245 251 250 247 245 239 227 208 196 191 193 192 175 169 168 170 178 170 164 161 155 163 165 163 176 176 176 183 172 171 187 181 175 189 190 201 193 157 158 168 155 132 142 161 169 171 167 140 129 149 173 186 190 208 206 207 256 293 309 308 315 326 346 350 1 33 31 9 357 358 358 355 355 341 278 214 183 166 164 162 157 152
241 240 239 242 244 244 249 251 250 246 232 212 196 195 190 167 168 168 168 177 167 163 163 157 166 164 159 167 159 169 188 174 186 203 194 197 201 183 185 209 163 148 162 153 125 130 134 168 180 195 210 175 146 155 185 191 202 218 213 239 283 321 323 309 296 282 287 291 342 51 32 10 349 337 336 341 341 314 268 216 201 192 176 173 172
227 221 224 231 233 234 241 246 252 257 256 239 210 195 175 154 165 161 158 171 160 158 164 162 162 160 154 149 144 155 169 167 187 211 215 216 207 155 316 7 146 157 185 166 121 146 162 154 191 235 251 273 231 188 203 206 208 219 222 224 238 268 299 301 279 266 274 273 264 259 315 23 5 313 303 310 319 318 298 253 230 223 201 191 184
196 197 199 203 207 217 234 243 250 262 273 268 236 182 153 149 160 155 151 161 168 168 173 166 159 158 150 141 141 138 131 124 143 184 254 352 55 24 276 228 230 244 236 201 82 99 200 194 237 249 243 260 305 273 258 243 224 227 233 230 230 243 264 276 268 277 287 275 268 264 260 276 302 301 296 293 290 295 299 274 248 240 224 213 203
176 181 173 169 175 195 218 235 242 266 284 284 342 68 172 164 157 155 147 147 165 175 174 164 155 152 146 139 140 134 129 115 100 102 60 54 82 261 266 266 262 261 257 241 169 213 215 253 276 287 261 246 300 296 274 268 258 254 257 260 257 243 245 253 253 270 286 280 275 271 269 274 271 272 287 292 287 276 275 273 259 248 234 225 220
155 163 156 156 165 181 198 212 233 263 280 290 5 34 219 179 155 147 142 136 148 161 165 162 150 141 140 142 148 151 148 133 111 85 78 82 88 319 284 295 299 278 263 250 236 245 327 301 276 351 306 274 302 316 305 297 279 271 273 269 273 266 251 250 247 248 258 268 274 272 275 278 268 260 264 278 286 273 259 260 260 253 243 235 230
138 141 138 145 150 160 176 177 216 245 272 299 325 287 214 175 149 147 150 146 149 158 161 163 161 155 150 149 156 163 152 137 127 102 97 105 93 57 258 274 340 175 215 208 219 312 37 17 37 62 330 287 322 349 356 349 331 310 298 280 269 269 264 264 260 247 244 251 258 260 268 277 272 264 259 262 275 277 267 258 255 252 248 241 234
131 129 124 123 127 130 138 131 137 218 242 253 247 239 208 172 158 157 160 160 158 163 168 178 189 182 169 165 168 165 153 136 123 115 116 130 143 148 152 150 115 104 119 140 127 81 68 44 43 52 36 19 12 4 6 3 346 335 324 308 290 276 267 264 266 261 252 251 254 255 258 266 272 270 265 260 262 270 272 262 253 250 249 246 239
129 129 124 117 117 111 109 101 94 153 214 217 221 219 197 186 176 158 154 164 165 171 184 204 211 190 181 187 187 180 171 159 132 104 98 112 136 156 144 124 109 99 102 105 97 75 57 54 53 49 39 35 34 20 28 23 349 341 336 330 320 300 281 265 260 261 261 259 257 255 254 258 263 265 265 262 258 259 263 260 252 248 247 249 248
125 124 123 117 109 98 91 85 77 93 152 196 201 205 194 195 185 166 165 172 165 177 198 217 221 202 201 195 184 212 207 176 151 111 98 105 103 117 124 117 109 104 105 99 92 85 69 60 50 42 35 31 31 27 35 30 8 3 348 333 330 329 310 283 267 260 258 259 259 259 256 254 255 259 261 259 257 255 258 262 257 254 251 250 251
124 121 119 112 100 83 75 79 71 70 92 150 174 188 186 190 192 184 190 196 186 193 206 214 223 223 232 227 188 229 227 159 153 118 99 105 95 102 105 105 115 113 110 104 97 92 80 68 54 46 41 34 31 27 31 33 25 16 344 331 332 340 333 307 284 269 262 261 260 262 261 254 251 254 256 254 255 253 253 258 258 258 259 256 251
120 116 109 99 91 86 84 97 98 79 78 108 141 174 176 174 190 188 189 201 204 207 207 206 219 219 222 255 188 233 240 163 159 112 107 108 90 95 97 96 103 99 98 98 93 87 76 68 62 58 53 48 44 40 42 39 25 11 341 335 341 339 331 316 297 283 274 268 263 263 264 262 257 257 255 250 251 250 247 251 256 259 263 264 254
116 112 104 97 100 110 106 105 115 124 124 114 114 140 159 153 170 183 180 190 204 212 205 191 205 214 216 226 217 208 237 188 155 156 141 120 101 94 87 84 85 82 83 83 83 81 74 72 70 65 60 55 53 51 51 45 30 24 13 354 346 336 327 316 305 297 288 279 272 270 270 267 261 261 258 250 246 247 247 247 252 258 261 261 254
114 109 105 103 106 113 103 94 101 110 118 113 100 98 97 108 140 168 170 177 194 209 204 188 194 204 205 217 222 216 221 201 198 227 211 131 127 111 92 86 83 79 80 79 80 81 76 72 70 67 63 59 57 55 53 49 41 40 37 25 13 0 349 334 325 323 317 307 295 285 283 279 267 261 258 253 247 245 248 249 249 254 256 255 255
109 104 103 102 109 114 104 96 95 93 96 96 88 82 79 74 91 128 139 146 166 184 191 193 191 184 183 193 198 193 203 204 219 241 230 135 141 123 111 106 92 84 82 84 84 84 80 73 69 67 65 61 59 57 55 52 46 42 40 36 30 24 18 7 351 345 346 347 336 312 297 292 283 268 260 256 248 240 242 246 248 252 256 255 257
114 106 100 98 106 111 105 100 95 89 82 82 81 75 74 70 65 76 94 108 113 121 166 184 180 180 178 175 183 186 188 189 205 233 206 144 149 139 134 128 107 95 90 92 92 87 83 76 70 65 63 62 61 60 58 54 50 45 39 35 33 29 28 24 9 355 357 13 18 13 1 333 308 293 278 262 247 242 242 243 246 252 256 257 258
126 115 104 98 98 94 95 95 88 84 73 68 72 70 69 68 69 74 78 87 99 108 134 156 158 174 179 181 202 201 194 190 186 197 193 161 155 151 143 130 118 113 104 98 95 89 84 78 72 67 64 63 62 67 65 57 53 52 43 35 35 32 30 29 24 19 9 3 13 23 26 14 2 357 339 297 247 244 250 247 247 251 253 254 255
132 122 110 99 97 91 89 92 85 77 70 68 72 74 75 76 76 79 79 84 99 115 130 145 151 164 173 180 203 197 189 194 177 185 191 164 157 156 143 132 123 120 119 113 100 90 80 75 71 65 64 65 64 69 73 66 58 56 49 40 36 34 33 33 30 30 26 13 9 17 25 20 13 12 9 2 295 244 250 248 246 249 252 256 257
133 124 115 103 100 101 97 93 86 77 76 81 84 85 86 86 81 79 80 82 87 101 117 126 130 139 145 137 127 119 104 93 128 167 163 150 157 156 143 137 131 130 136 135 119 102 83 71 66 62 58 59 64 67 72 73 65 57 51 43 39 36 34 35 33 32 31 25 19 15 13 14 6 355 2 13 9 305 266 261 257 258 263 269 272
131 122 115 107 101 103 99 91 88 87 89 90 91 90 88 92 91 85 83 82 83 90 99 105 106 108 111 107 100 96 91 88 94 121 138 148 157 156 142 134 138 145 147 145 135 113 91 74 57 58 58 54 61 67 71 74 65 54 48 38 35 37 34 33 32 30 30 27 22 18 15 14 10 355 344 347 343 321 275 266 264 269 274 277 283
130 121 114 108 104 103 99 95 95 97 98 97 97 93 86 91 95 92 90 87 88 91 92 95 93 89 88 88 94 89 81 84 85 93 118 142 148 155 155 148 151 152 143 138 125 101 95 90 66 54 55 59 60 62 72 71 51 53 56 40 27 29 30 27 25 23 24 25 22 20 19 19 20 16 4 347 326 310 284 271 268 268 272 277 283
131 125 118 112 109 105 100 99 101 104 105 103 101 97 90 93 98 96 93 92 94 95 94 94 87 83 83 82 89 85 74 76 75 73 80 98 129 153 168 167 160 151 150 145 123 101 88 91 80 63 49 56 59 52 60 54 40 57 62 49 18 9 12 10 7 9 8 10 13 10 10 11 15 17 13 5 349 333 318 304 296 286 282 284 286
135 131 126 120 116 113 107 104 105 107 110 107 104 103 99 99 103 101 97 97 98 95 95 98 92 89 88 84 89 87 78 78 77 76 79 88 115 144 173 187 189 169 159 149 120 104 84 55 62 65 54 52 54 52 49 34 51 72 60 46 9 344 348 349 340 342 344 344 347 346 347 348 349 353 354 353 348 340 332 323 313 302 294 291 290
141 139 133 128 124 120 116 112 110 110 112 112 111 111 109 109 110 107 104 103 102 99 99 100 98 97 96 93 95 93 87 86 84 83 84 88 100 105 102 118 320 83 145 134 108 86 84 72 55 55 54 51 47 52 51 25 42 74 54 42 10 339 346 353 343 337 332 330 328 325 327 325 323 325 324 323 323 319 316 313 309 304 299 295 293
146 144 140 138 136 131 126 122 118 116 115 115 117 117 117 118 117 116 114 111 110 109 109 106 106 107 105 102 102 99 97 96 92 91 89 88 92 93 90 83 64 54 69 118 112 83 73 83 77 62 54 56 48 52 63 29 31 63 56 29 17 2 359 354 351 350 339 334 332 324 321 318 314 312 310 308 307 305 303 301 299 297 295 294 293
149 149 147 147 146 140 136 132 127 125 121 119 121 122 122 122 122 123 123 121 117 114 115 115 114 117 115 112 110 108 108 108 105 102 97 91 88 88 91 87 80 75 66 86 104 103 92 93 100 88 68 70 57 46 63 36 23 48 56 22 18 18 359 326 334 348 346 335 331 331 329 325 320 314 309 306 302 300 298 295 294 292 291 291 290
154 154 154 153 153 148 144 141 137 135 133 130 128 126 125 125 125 128 131 131 125 122 124 124 122 125 125 123 121 118 118 118 121 121 113 106 101 97 99 96 90 84 81 93 108 118 121 122 121 106 84 86 69 48 48 37 6 9 21 6 5 16 3 316 315 332 343 340 332 333 333 328 326 321 316 313 308 303 299 295 292 289 287 286 285
160 158 158 158 157 154 151 150 148 145 143 141 138 135 134 134 134 138 142 142 136 135 137 134 133 134 134 135 133 130 129 129 135 135 128 129 125 112 105 102 98 88 85 97 109 121 130 139 149 138 104 50 38 50 36 28 10 343 326 332 334 343 356 350 318 317 336 348 340 335 337 332 327 321 316 313 309 306 303 299 295 291 288 285 282
166 163 162 162 161 159 158 157 155 153 150 149 148 147 146 147 148 149 151 151 149 149 151 149 146 145 146 147 144 143 144 143 147 140 133 145 139 118 107 98 97 89 78 77 93 116 130 140 158 164 140 116 352 18 345 314 325 332 325 323 324 315 332 347 336 307 324 344 350 345 345 341 336 334 326 316 307 301 297 295 293 292 290 287 284
171 168 166 166 166 164 163 162 160 159 157 156 156 156 156 156 157 156 157 159 160 161 163 159 156 156 158 158 156 157 156 154 158 157 154 163 150 133 132 124 113 96 77 59 54 114 135 141 148 148 135 177 211 354 341 317 297 306 315 315 313 303 311 333 335 304 314 337 348 347 348 349 348 347 342 330 320 309 299 292 288 287 286 285 284
175 173 171 171 172 172 171 169 165 162 162 163 164 164 163 162 160 161 163 166 170 173 174 172 171 172 171 171 170 168 168 167 167 167 165 169 166 160 167 162 143 121 96 74 54 58 149 142 144 148 145 186 247 302 334 337 326 312 321 328 318 305 308 323 326 309 314 333 341 339 342 345 343 342 344 342 334 323 316 307 295 287 283 281 280
181 181 180 177 178 180 180 174 169 168 168 168 169 167 166 166 167 168 170 175 182 185 187 190 191 190 190 190 186 183 183 180 174 169 160 163 180 167 170 216 168 132 133 136 120 259 274 130 143 164 170 200 305 299 315 336 331 319 328 334 329 320 320 324 325 315 310 322 326 326 330 331 329 332 338 340 335 330 333 327 311 298 287 281 280
191 190 189 187 186 185 183 180 177 175 173 171 170 169 168 168 169 171 175 182 189 194 199 204 204 204 205 204 199 197 197 192 184 178 172 173 184 174 163 273 274 215 197 215 211 231 261 272 265 255 219 227 282 303 319 332 325 325 337 337 331 328 327 325 323 316 305 312 319 322 324 324 324 328 332 333 330 328 333 332 320 307 296 289 288
200 198 194 192 191 188 186 187 185 181 179 179 175 173 175 175 173 177 182 190 200 206 211 215 215 216 215 214 212 209 205 202 198 193 189 187 186 190 197 215 242 241 233 238 246 249 257 280 294 300 298 292 290 305 327 335 331 334 341 335 325 324 325 323 321 314 302 310 318 321 323 322 319 320 322 323 318 313 322 331 326 315 309 306 303
203 201 195 193 192 192 190 188 189 187 185 185 182 180 183 186 189 193 195 201 216 227 232 231 227 225 224 222 219 214 211 215 220 218 214 210 200 196 202 206 212 225 237 244 253 264 270 284 296 302 303 304 307 319 330 335 335 332 331 326 319 320 321 318 318 315 302 308 316 317 319 316 306 304 308 309 300 297 311 327 324 306 307 309 306
203 198 193 193 193 192 189 190 194 194 193 196 196 195 194 193 198 203 206 213 226 238 244 242 236 232 230 226 224 223 224 228 236 235 229 225 219 208 201 203 206 210 225 246 258 270 281 289 298 307 311 312 319 327 324 328 332 325 323 322 317 317 318 315 316 319 310 310 316 315 314 312 302 298 299 297 290 289 299 300 276 283 298 304 300
202 196 197 200 198 194 192 195 197 195 196 200 203 210 213 212 211 213 217 222 229 236 241 241 239 236 232 225 223 231 236 233 233 234 232 229 227 219 208 208 214 211 209 233 256 261 279 293 303 313 312 311 316 315 314 325 331 323 320 318 312 313 317 315 314 315 316 321 319 311 308 308 299 293 294 292 288 285 280 272 275 288 301 305 299
196 198 202 204 204 202 200 200 200 198 201 207 214 222 222 220 223 224 222 224 230 236 239 239 238 236 231 225 217 223 235 230 222 226 231 229 225 222 217 217 222 218 208 216 234 242 291 307 305 304 304 308 315 317 318 325 324 318 313 310 309 310 310 307 305 304 307 316 313 304 302 305 301 293 290 288 287 284 278 280 289 298 304 307 303
196 201 207 207 210 213 210 211 214 215 221 229 232 227 221 226 237 235 224 221 228 233 233 233 235 230 224 223 214 210 223 227 214 212 223 227 222 220 220 219 222 220 214 215 222 230 267 301 292 290 293 303 311 315 311 307 310 311 308 306 307 306 301 298 297 296 298 302 301 296 297 301 302 297 292 290 290 286 283 288 294 296 299 306 305
197 207 223 221 216 219 222 228 232 233 236 238 234 227 226 231 235 229 217 211 213 218 220 221 224 221 219 221 219 214 209 213 213 206 209 220 220 215 211 210 215 216 213 213 222 239 266 277 280 294 300 297 302 307 304 303 304 304 302 302 302 300 295 292 289 287 288 287 282 284 291 297 304 301 294 292 293 289 287 288 290 292 295 302 304
210 224 236 231 225 228 231 235 237 235 237 237 230 225 225 222 217 211 204 195 194 202 208 207 207 213 215 215 227 229 211 208 218 203 194 205 209 200 191 186 187 190 193 203 218 234 241 232 246 269 270 272 282 287 289 294 296 293 292 292 291 289 286 287 286 285 286 283 271 270 282 294 302 299 293 294 294 292 291 290 291 292 291 295 301
222 230 231 228 230 232 230 229 227 227 233 234 227 220 215 209 201 194 189 187 189 192 189 182 182 187 190 198 216 221 204 208 217 201 185 183 180 174 171 168 165 178 198 213 227 240 246 250 254 256 260 270 278 281 282 285 287 290 292 290 286 283 284 288 291 291 293 291 276 270 280 291 298 297 294 295 294 293 292 291 291 289 286 290 300
226 227 221 222 226 222 218 219 215 215 224 222 212 203 200 195 189 186 190 196 194 187 175 161 155 159 167 177 180 174 179 197 206 194 178 170 166 165 167 167 163 175 203 220 237 252 256 262 266 267 270 277 284 288 291 293 295 298 296 291 290 293 292 292 294 295 296 296 289 280 279 287 295 297 296 296 294 292 291 291 291 288 288 295 301
219 217 208 207 214 211 209 208 201 199 206 201 191 190 192 190 186 189 201 201 188 180 169 152 140 148 165 166 154 152 172 184 185 175 164 162 165 168 168 169 167 171 194 219 244 262 267 273 281 285 290 297 300 303 304 303 306 308 296 284 291 297 292 290 294 296 296 295 294 287 281 287 296 300 299 299 296 291 290 290 290 290 294 300 303
206 203 196 195 197 192 190 188 182 179 187 189 186 189 194 195 193 196 208 202 187 183 175 154 138 138 149 155 151 148 149 151 155 158 156 156 167 174 172 177 180 172 172 187 207 237 261 276 285 292 300 305 307 307 302 299 305 309 295 278 284 291 289 290 294 296 294 293 300 306 295 295 302 303 302 303 300 296 296 294 291 291 293 296 298